When you browse on this site, cookies collect data to enhance your experience and personalize the content and advertising you see.
Visit our Privacy Policy to learn more. By continuing to use the site, you agree to this use of cookies and data.
  • In Czech Republic
  • List of Countries
  • For 7 days
  • Water Temperature
  • Weather Map
  • Weather Widgets
  • user-avatar
    Login

    Hourly Weather La Teste-de-Buch

    Today, 4 June, Thursday

    Time Temperature Precipitation Wind Pressure Humidity
    00:00 +15°C° 0 mm 5 mps 753 mmHg 87%
    01:00 +15°C° 0.4 mm 5 mps 752 mmHg 87%
    02:00 +15°C° 0.4 mm 5 mps 752 mmHg 88%
    03:00 +14°C° 0.4 mm 5 mps 752 mmHg 89%
    04:00 +15°C° 0.3 mm 5 mps 751 mmHg 88%
    05:00 +15°C° 0.3 mm 5 mps 751 mmHg 87%
    06:00 +16°C° 0.3 mm 6 mps 751 mmHg 86%
    07:00 +16°C° 0.7 mm 6 mps 751 mmHg 82%
    08:00 +17°C° 0.7 mm 6 mps 751 mmHg 79%
    09:00 +18°C° 0.7 mm 7 mps 751 mmHg 75%
    10:00 +18°C° 1.1 mm 7 mps 751 mmHg 73%
    11:00 +20°C° 1.1 mm 6 mps 752 mmHg 71%
    12:00 +21°C° 1.1 mm 6 mps 752 mmHg 68%
    13:00 +21°C° 0.4 mm 6 mps 752 mmHg 63%
    14:00 +21°C° 0.4 mm 7 mps 752 mmHg 57%
    15:00 +22°C° 0.4 mm 7 mps 752 mmHg 51%
    16:00 +21°C° 0.2 mm 7 mps 753 mmHg 57%
    17:00 +20°C° 0.2 mm 8 mps 753 mmHg 63%
    18:00 +18°C° 0.2 mm 8 mps 754 mmHg 69%
    19:00 +17°C° 0.1 mm 7 mps 755 mmHg 71%
    20:00 +16°C° 0.1 mm 7 mps 756 mmHg 73%
    21:00 +15°C° 0.1 mm 6 mps 756 mmHg 75%
    22:00 +15°C° 0.1 mm 6 mps 757 mmHg 78%
    23:00 +14°C° 0.1 mm 6 mps 757 mmHg 81%

    Tomorrow, 5 June, Friday

    Time Temperature Precipitation Wind Pressure Humidity
    00:00 +14°C° 0.1 mm 6 mps 757 mmHg 84%
    01:00 +14°C° 0.1 mm 6 mps 757 mmHg 84%
    02:00 +13°C° 0.1 mm 6 mps 757 mmHg 84%
    03:00 +13°C° 0.1 mm 6 mps 757 mmHg 84%
    04:00 +14°C° 0.1 mm 6 mps 757 mmHg 83%
    05:00 +14°C° 0.1 mm 5 mps 757 mmHg 81%
    06:00 +14°C° 0.1 mm 5 mps 757 mmHg 80%
    07:00 +15°C° 0.2 mm 6 mps 758 mmHg 78%
    08:00 +16°C° 0.2 mm 6 mps 758 mmHg 76%
    09:00 +17°C° 0.2 mm 7 mps 758 mmHg 75%
    10:00 +17°C° 0.1 mm 7 mps 758 mmHg 74%
    11:00 +17°C° 0.1 mm 7 mps 758 mmHg 74%
    12:00 +17°C° 0.1 mm 8 mps 758 mmHg 73%
    13:00 +17°C° 0.2 mm 8 mps 758 mmHg 75%
    14:00 +18°C° 0.2 mm 7 mps 758 mmHg 76%
    15:00 +18°C° 0.2 mm 7 mps 757 mmHg 77%
    16:00 +17°C° 0.1 mm 7 mps 757 mmHg 78%
    17:00 +17°C° 0.1 mm 7 mps 757 mmHg 78%
    18:00 +17°C° 0.1 mm 7 mps 757 mmHg 79%
    19:00 +17°C° 0.1 mm 7 mps 758 mmHg 81%
    20:00 +17°C° 0.1 mm 6 mps 758 mmHg 82%
    21:00 +17°C° 0.1 mm 6 mps 758 mmHg 84%
    22:00 +16°C° 0.1 mm 6 mps 758 mmHg 85%
    23:00 +16°C° 0.1 mm 6 mps 758 mmHg 86%

    Day after tomorrow, 6 June, Saturday

    Time Temperature Precipitation Wind Pressure Humidity
    00:00 +16°C° 0.1 mm 6 mps 758 mmHg 87%
    01:00 +16°C° 0.1 mm 6 mps 758 mmHg 87%
    02:00 +16°C° 0.1 mm 6 mps 757 mmHg 88%
    03:00 +16°C° 0.1 mm 6 mps 757 mmHg 88%
    04:00 +16°C° 0.1 mm 6 mps 757 mmHg 88%
    05:00 +16°C° 0.1 mm 6 mps 757 mmHg 87%
    06:00 +17°C° 0.1 mm 6 mps 757 mmHg 87%
    07:00 +17°C° 0.1 mm 6 mps 757 mmHg 84%
    08:00 +19°C° 0.1 mm 6 mps 757 mmHg 81%
    09:00 +19°C° 0.1 mm 6 mps 757 mmHg 78%
    10:00 +20°C° 0.2 mm 6 mps 757 mmHg 75%
    11:00 +20°C° 0.2 mm 5 mps 757 mmHg 72%
    12:00 +21°C° 0.2 mm 5 mps 757 mmHg 70%
    13:00 +20°C° 0.1 mm 5 mps 757 mmHg 70%
    14:00 +20°C° 0.1 mm 4 mps 757 mmHg 71%
    15:00 +20°C° 0.1 mm 4 mps 757 mmHg 71%
    16:00 +19°C° 0 mm 4 mps 757 mmHg 71%
    17:00 +19°C° 0 mm 4 mps 757 mmHg 70%
    18:00 +18°C° 0 mm 4 mps 757 mmHg 70%
    19:00 +18°C° 0 mm 4 mps 757 mmHg 71%
    20:00 +17°C° 0 mm 3 mps 758 mmHg 72%
    21:00 +16°C° 0 mm 3 mps 758 mmHg 73%
    22:00 +16°C° 0 mm 3 mps 758 mmHg 72%
    23:00 +16°C° 0 mm 3 mps 758 mmHg 71%

    7 June, Sunday

    Time Temperature Precipitation Wind Pressure Humidity
    00:00 +16°C° 0 mm 3 mps 758 mmHg 69%
    01:00 +14°C° 0 mm 3 mps 758 mmHg 69%
    02:00 +14°C° 0 mm 3 mps 758 mmHg 68%
    03:00 +14°C° 0 mm 3 mps 758 mmHg 67%
    04:00 +14°C° 0 mm 3 mps 758 mmHg 67%
    05:00 +14°C° 0 mm 3 mps 759 mmHg 68%
    06:00 +14°C° 0 mm 3 mps 759 mmHg 68%
    07:00 +16°C° 0 mm 2 mps 759 mmHg 62%
    08:00 +18°C° 0 mm 2 mps 760 mmHg 56%
    09:00 +19°C° 0 mm 2 mps 760 mmHg 50%
    10:00 +19°C° 0 mm 2 mps 760 mmHg 47%
    11:00 +20°C° 0 mm 3 mps 761 mmHg 45%
    12:00 +20°C° 0 mm 3 mps 761 mmHg 42%
    13:00 +20°C° 0 mm 4 mps 761 mmHg 42%
    14:00 +20°C° 0 mm 4 mps 761 mmHg 43%
    15:00 +20°C° 0 mm 5 mps 761 mmHg 43%
    16:00 +19°C° 0 mm 5 mps 761 mmHg 48%
    17:00 +19°C° 0 mm 4 mps 761 mmHg 52%
    18:00 +18°C° 0 mm 4 mps 761 mmHg 57%
    19:00 +15°C° 0.1 mm 4 mps 761 mmHg 64%
    20:00 +14°C° 0.1 mm 4 mps 762 mmHg 72%
    21:00 +13°C° 0.1 mm 3 mps 762 mmHg 80%
    22:00 +13°C° 0.2 mm 3 mps 762 mmHg 80%
    23:00 +13°C° 0.2 mm 3 mps 762 mmHg 80%

    8 June, Monday

    Time Temperature Precipitation Wind Pressure Humidity
    00:00 +13°C° 0.2 mm 3 mps 762 mmHg 80%
    01:00 +13°C° 0.2 mm 3 mps 762 mmHg 81%
    02:00 +13°C° 0.2 mm 3 mps 761 mmHg 82%
    03:00 +13°C° 0.2 mm 2 mps 761 mmHg 83%
    04:00 +13°C° 0.2 mm 3 mps 761 mmHg 83%
    05:00 +13°C° 0.2 mm 3 mps 761 mmHg 83%
    06:00 +13°C° 0.2 mm 3 mps 761 mmHg 83%
    07:00 +16°C° 0.3 mm 3 mps 762 mmHg 79%
    08:00 +17°C° 0.3 mm 3 mps 762 mmHg 74%
    09:00 +18°C° 0.3 mm 3 mps 762 mmHg 70%
    10:00 +19°C° 0.5 mm 4 mps 762 mmHg 68%
    11:00 +19°C° 0.5 mm 4 mps 762 mmHg 65%
    12:00 +20°C° 0.5 mm 5 mps 762 mmHg 63%
    13:00 +20°C° 0.2 mm 5 mps 762 mmHg 61%
    14:00 +21°C° 0.2 mm 5 mps 762 mmHg 58%
    15:00 +21°C° 0.2 mm 6 mps 762 mmHg 55%
    16:00 +20°C° 0 mm 5 mps 762 mmHg 58%
    17:00 +20°C° 0 mm 5 mps 762 mmHg 61%
    18:00 +19°C° 0 mm 5 mps 762 mmHg 64%
    19:00 +18°C° 0 mm 4 mps 762 mmHg 71%
    20:00 +16°C° 0 mm 3 mps 763 mmHg 77%
    21:00 +15°C° 0 mm 2 mps 763 mmHg 83%
    22:00 +14°C° 0 mm 2 mps 763 mmHg 84%
    23:00 +14°C° 0 mm 2 mps 763 mmHg 86%

    9 June, Tuesday

    Time Temperature Precipitation Wind Pressure Humidity
    00:00 +14°C° 0 mm 1 mps 763 mmHg 87%
    01:00 +13°C° 0 mm 1 mps 763 mmHg 88%
    02:00 +13°C° 0 mm 1 mps 763 mmHg 89%
    03:00 +12°C° 0 mm 0 mps 763 mmHg 90%
    04:00 +13°C° 0 mm 0 mps 763 mmHg 86%
    05:00 +14°C° 0 mm 0 mps 763 mmHg 82%
    06:00 +15°C° 0 mm 0 mps 764 mmHg 79%
    07:00 +19°C° 0 mm 1 mps 764 mmHg 69%
    08:00 +21°C° 0 mm 1 mps 764 mmHg 60%
    09:00 +24°C° 0 mm 1 mps 764 mmHg 51%
    10:00 +24°C° 0.1 mm 2 mps 764 mmHg 52%
    11:00 +24°C° 0.1 mm 2 mps 764 mmHg 52%
    12:00 +24°C° 0.1 mm 3 mps 764 mmHg 53%
    13:00 +22°C° 0.1 mm 3 mps 764 mmHg 54%
    14:00 +22°C° 0.1 mm 4 mps 764 mmHg 56%
    15:00 +22°C° 0.1 mm 4 mps 764 mmHg 58%
    16:00 +22°C° 0 mm 4 mps 764 mmHg 58%
    17:00 +22°C° 0 mm 4 mps 764 mmHg 59%
    18:00 +21°C° 0 mm 4 mps 764 mmHg 59%
    19:00 +20°C° 0 mm 4 mps 764 mmHg 67%
    20:00 +18°C° 0 mm 4 mps 765 mmHg 74%
    21:00 +17°C° 0 mm 4 mps 765 mmHg 81%
    22:00 +15°C° 0 mm 4 mps 765 mmHg 81%
    23:00 +14°C° 0 mm 3 mps 765 mmHg 81%
    Show more